Temp
-5 -6 -6 -7 -7 -7 -7 -6 -5 -6 -7 -7 -7 -7 -7 -7 -7 -7 -7 -8 -8 -8 -8 -8 -8 -8 -8 -8 -8 -8 -9 -9 -9 -8 -8 -8 -8 -8 -8 -7 -7 -7 -7 -8 -7 -7 -7 -8 -7
-5 -6 -6 -7 -7 -7 -7 -6 -6 -6 -6 -7 -7 -7 -7 -7 -7 -7 -7 -8 -8 -8 -8 -8 -8 -8 -8 -9 -9 -9 -9 -9 -9 -9 -9 -8 -8 -8 -8 -7 -7 -7 -8 -8 -8 -8 -7 -7 -7
-5 -6 -7 -7 -7 -7 -6 -6 -6 -6 -6 -7 -7 -7 -7 -7 -7 -7 -7 -8 -8 -8 -8 -8 -8 -9 -9 -9 -9 -9 -9 -9 -9 -9 -9 -8 -8 -8 -7 -7 -8 -8 -8 -8 -8 -8 -8 -7 -8
-5 -6 -6 -7 -7 -7 -6 -6 -6 -5 -6 -7 -7 -7 -7 -7 -7 -7 -7 -8 -8 -8 -8 -8 -9 -8 -8 -9 -9 -9 -9 -9 -9 -9 -9 -9 -8 -8 -8 -8 -8 -8 -8 -8 -8 -8 -8 -8 -8
-5 -5 -6 -5 -6 -6 -5 -6 -5 -5 -6 -6 -6 -7 -7 -8 -8 -7 -7 -8 -8 -8 -8 -8 -8 -8 -9 -9 -9 -9 -9 -9 -9 -9 -9 -9 -9 -8 -8 -8 -8 -8 -8 -8 -8 -8 -8 -8 -8
-4 -5 -6 -6 -6 -6 -5 -5 -5 -5 -6 -6 -6 -7 -7 -7 -8 -7 -7 -7 -8 -9 -9 -9 -9 -9 -9 -9 -9 -9 -9 -9 -9 -9 -9 -9 -9 -9 -8 -8 -8 -8 -8 -8 -8 -8 -7 -7 -8
-5 -5 -6 -6 -6 -5 -5 -5 -5 -6 -6 -6 -6 -7 -7 -7 -8 -8 -7 -8 -8 -9 -9 -9 -9 -9 -9 -9 -9 -9 -9 -9 -10 -9 -9 -9 -9 -9 -9 -8 -8 -8 -8 -8 -8 -8 -7 -7 -8
-6 -5 -6 -6 -6 -6 -6 -6 -6 -6 -6 -6 -6 -7 -7 -7 -8 -8 -8 -8 -8 -8 -9 -9 -8 -9 -9 -9 -9 -9 -9 -9 -9 -9 -9 -9 -9 -9 -9 -8 -8 -8 -8 -8 -8 -8 -7 -7 -8
-6 -6 -6 -6 -6 -6 -6 -6 -6 -5 -5 -6 -6 -6 -7 -7 -8 -8 -8 -8 -8 -8 -9 -9 -9 -9 -9 -9 -9 -10 -10 -9 -9 -9 -9 -9 -9 -9 -9 -9 -8 -8 -8 -8 -8 -7 -7 -7 -7
-6 -6 -6 -6 -6 -6 -6 -6 -6 -5 -5 -6 -6 -7 -7 -7 -7 -7 -8 -8 -8 -8 -9 -9 -9 -9 -9 -9 -10 -10 -10 -10 -9 -9 -9 -9 -9 -9 -9 -9 -8 -8 -8 -8 -8 -7 -7 -7 -7
-5 -5 -5 -6 -6 -6 -6 -7 -6 -5 -6 -6 -6 -7 -6 -7 -7 -7 -8 -8 -8 -8 -9 -9 -9 -9 -9 -9 -10 -10 -10 -10 -10 -9 -9 -9 -9 -9 -9 -9 -8 -8 -8 -8 -7 -7 -7 -7 -7
-6 -6 -5 -6 -6 -6 -6 -6 -6 -6 -6 -5 -6 -7 -7 -7 -7 -7 -7 -7 -8 -8 -8 -8 -9 -9 -9 -9 -9 -10 -10 -10 -9 -9 -9 -9 -9 -9 -9 -9 -8 -8 -8 -8 -7 -7 -7 -7 -7
-5 -6 -5 -6 -6 -5 -6 -6 -5 -6 -6 -6 -5 -6 -7 -7 -7 -7 -7 -7 -7 -8 -8 -8 -8 -9 -9 -9 -9 -10 -10 -9 -9 -9 -9 -9 -9 -9 -8 -8 -8 -8 -8 -8 -7 -7 -7 -7 -7
-5 -6 -6 -6 -6 -6 -6 -6 -6 -6 -7 -6 -5 -5 -6 -7 -6 -7 -7 -7 -7 -7 -8 -8 -8 -8 -8 -9 -9 -9 -10 -9 -9 -9 -9 -9 -9 -8 -8 -8 -8 -8 -8 -8 -7 -7 -7 -7 -7
-5 -6 -5 -5 -6 -6 -6 -6 -6 -6 -6 -7 -6 -5 -6 -7 -6 -7 -7 -7 -7 -7 -7 -8 -8 -7 -7 -8 -8 -9 -9 -9 -9 -9 -9 -8 -8 -8 -8 -8 -8 -8 -7 -7 -7 -7 -7 -7 -7
-6 -6 -6 -5 -5 -6 -6 -6 -6 -7 -6 -7 -6 -6 -5 -6 -6 -7 -7 -7 -7 -7 -7 -7 -8 -8 -7 -8 -8 -8 -8 -9 -9 -8 -8 -9 -8 -8 -8 -8 -8 -8 -7 -7 -7 -7 -7 -7 -7
-6 -6 -6 -5 -5 -6 -6 -6 -6 -6 -6 -7 -7 -5 -6 -6 -6 -7 -7 -7 -7 -7 -7 -7 -7 -7 -7 -8 -8 -8 -8 -8 -8 -8 -8 -8 -8 -8 -8 -7 -7 -7 -7 -7 -7 -8 -8 -7 -7
-6 -6 -6 -6 -5 -5 -5 -5 -5 -6 -6 -6 -7 -5 -5 -6 -6 -6 -7 -7 -7 -7 -6 -7 -7 -7 -7 -7 -7 -7 -7 -8 -8 -8 -8 -8 -8 -8 -7 -7 -7 -7 -7 -7 -8 -8 -8 -8 -8
-7 -6 -6 -6 -5 -6 -6 -6 -6 -6 -6 -7 -6 -6 -5 -6 -6 -7 -7 -7 -6 -6 -6 -6 -7 -7 -7 -7 -7 -7 -7 -7 -7 -7 -8 -8 -7 -7 -7 -7 -7 -7 -7 -7 -8 -8 -8 -8 -8
-8 -8 -7 -7 -6 -6 -6 -6 -6 -6 -6 -6 -6 -6 -5 -5 -6 -6 -7 -7 -6 -6 -6 -6 -7 -7 -7 -7 -7 -7 -7 -7 -7 -7 -7 -8 -7 -7 -7 -7 -7 -7 -7 -7 -7 -7 -8 -8 -8
-9 -9 -8 -8 -7 -7 -6 -6 -6 -6 -6 -6 -6 -6 -6 -6 -6 -6 -7 -7 -7 -6 -6 -6 -7 -7 -6 -7 -7 -7 -7 -7 -7 -7 -7 -7 -7 -7 -7 -7 -7 -7 -7 -7 -7 -7 -7 -7 -8
-9 -9 -9 -9 -8 -8 -8 -7 -7 -6 -6 -6 -6 -6 -6 -6 -5 -5 -6 -7 -7 -6 -6 -6 -6 -6 -6 -6 -6 -7 -7 -7 -7 -7 -7 -6 -7 -7 -7 -7 -7 -7 -7 -7 -7 -7 -7 -7 -7
-10 -10 -9 -9 -9 -9 -8 -8 -7 -6 -6 -6 -6 -6 -6 -6 -6 -6 -6 -6 -7 -6 -6 -6 -6 -6 -6 -6 -6 -7 -7 -7 -7 -7 -7 -7 -7 -6 -6 -6 -7 -7 -7 -7 -7 -7 -7 -7 -7
-11 -10 -10 -10 -10 -9 -9 -8 -8 -7 -6 -6 -6 -6 -6 -6 -5 -5 -6 -6 -6 -6 -6 -7 -6 -6 -6 -6 -6 -6 -6 -6 -7 -7 -6 -6 -7 -7 -6 -6 -6 -6 -6 -6 -7 -7 -7 -7 -7
-11 -11 -10 -11 -10 -10 -10 -9 -8 -7 -6 -7 -7 -6 -6 -6 -4 -4 -5 -5 -6 -6 -6 -7 -7 -7 -7 -6 -6 -6 -6 -6 -6 -6 -7 -7 -7 -7 -7 -7 -7 -7 -6 -6 -6 -6 -6 -7 -7
-12 -11 -11 -11 -11 -10 -9 -9 -8 -7 -6 -5 -6 -6 -6 -6 -5 -4 -5 -6 -6 -6 -6 -6 -7 -7 -7 -6 -7 -7 -7 -7 -6 -6 -6 -7 -6 -6 -6 -7 -7 -7 -7 -6 -6 -6 -6 -6 -7
-12 -11 -12 -12 -11 -10 -9 -9 -9 -9 -7 -6 -6 -6 -6 -6 -6 -5 -4 -5 -5 -5 -6 -6 -6 -7 -7 -7 -7 -7 -7 -7 -6 -6 -7 -6 -6 -6 -6 -6 -6 -6 -6 -6 -6 -7 -7 -7 -7
-12 -12 -12 -12 -11 -11 -10 -10 -10 -9 -7 -7 -7 -6 -6 -7 -6 -5 -5 -5 -6 -6 -6 -5 -6 -6 -6 -7 -7 -7 -7 -7 -7 -7 -7 -7 -6 -6 -6 -6 -6 -6 -6 -7 -7 -7 -6 -7 -7
-13 -12 -12 -12 -11 -11 -10 -10 -10 -9 -9 -7 -7 -5 -7 -6 -7 -6 -6 -6 -6 -6 -6 -5 -6 -5 -6 -7 -7 -7 -7 -7 -7 -7 -7 -7 -7 -7 -7 -7 -7 -7 -6 -6 -6 -6 -6 -7 -7
-13 -13 -12 -12 -12 -11 -11 -10 -10 -10 -10 -9 -8 -6 -5 -5 -6 -7 -6 -6 -6 -6 -6 -6 -5 -6 -5 -6 -6 -6 -7 -7 -6 -6 -6 -7 -7 -7 -7 -7 -6 -7 -7 -6 -6 -6 -6 -6 -6
Height
5893 5893 5891 5891 5894 5892 5891 5891 5889 5888 5886 5886 5886 5885 5884 5883 5881 5882 5878 5877 5879 5879 5879 5879 5879 5879 5880 5879 5879 5879 5884 5886 5889 5890 5893 5895 5898 5899 5901 5903 5905 5906 5906 5908 5908 5910 5911 5912 5913
5894 5894 5892 5891 5893 5892 5892 5891 5890 5890 5888 5887 5887 5887 5886 5886 5883 5881 5880 5880 5881 5882 5881 5881 5882 5882 5881 5882 5881 5884 5887 5889 5891 5892 5895 5897 5899 5901 5903 5905 5907 5907 5908 5910 5910 5912 5913 5914 5914
5894 5893 5892 5891 5892 5893 5893 5892 5892 5891 5890 5889 5889 5889 5889 5888 5885 5884 5882 5882 5883 5883 5883 5884 5884 5884 5884 5885 5885 5887 5890 5891 5893 5895 5897 5899 5901 5903 5905 5906 5908 5910 5911 5911 5913 5913 5915 5915 5916
5895 5894 5892 5893 5893 5893 5894 5894 5894 5893 5892 5891 5891 5891 5891 5890 5887 5885 5884 5884 5885 5885 5885 5886 5887 5887 5887 5888 5889 5890 5892 5893 5895 5897 5899 5901 5903 5905 5906 5908 5909 5911 5912 5914 5914 5916 5917 5917 5919
5896 5894 5892 5893 5894 5894 5894 5895 5896 5895 5895 5893 5892 5892 5892 5890 5889 5887 5886 5886 5885 5886 5886 5886 5887 5888 5889 5889 5890 5891 5893 5896 5897 5899 5901 5903 5904 5905 5906 5909 5910 5912 5914 5916 5917 5919 5920 5921 5922
5895 5895 5895 5894 5895 5895 5895 5897 5898 5898 5897 5894 5893 5893 5893 5891 5890 5889 5888 5887 5886 5887 5888 5888 5888 5890 5890 5891 5892 5893 5895 5897 5898 5899 5900 5902 5904 5906 5908 5909 5912 5913 5916 5919 5921 5922 5923 5925 5927
5895 5895 5896 5895 5895 5896 5897 5898 5898 5899 5897 5896 5894 5895 5895 5894 5892 5892 5891 5889 5889 5890 5890 5889 5890 5892 5892 5892 5893 5894 5896 5897 5898 5899 5901 5904 5905 5907 5909 5911 5913 5916 5919 5921 5923 5924 5927 5929 5930
5894 5896 5896 5895 5896 5896 5897 5897 5898 5899 5898 5897 5896 5897 5897 5896 5895 5895 5893 5892 5893 5892 5892 5893 5894 5893 5893 5893 5894 5895 5896 5897 5899 5901 5902 5905 5907 5909 5911 5913 5915 5919 5922 5924 5926 5928 5931 5932 5933
5893 5895 5896 5895 5895 5896 5896 5898 5898 5900 5898 5899 5898 5898 5898 5898 5898 5898 5896 5895 5896 5895 5896 5896 5895 5895 5895 5895 5895 5896 5898 5899 5901 5902 5903 5906 5909 5911 5914 5916 5919 5921 5924 5927 5929 5931 5933 5935 5936
5893 5895 5895 5895 5895 5894 5893 5896 5898 5901 5900 5899 5900 5900 5900 5900 5900 5900 5899 5898 5898 5898 5898 5899 5897 5896 5897 5897 5898 5898 5899 5901 5902 5904 5905 5908 5911 5913 5916 5919 5922 5924 5927 5930 5932 5934 5936 5937 5938
5892 5893 5893 5893 5893 5894 5893 5894 5896 5899 5900 5899 5901 5902 5903 5902 5902 5902 5902 5901 5901 5901 5900 5901 5900 5900 5900 5901 5900 5900 5900 5902 5904 5907 5908 5911 5913 5915 5918 5921 5923 5926 5929 5932 5935 5937 5939 5940 5940
5893 5892 5893 5892 5892 5886 5892 5894 5896 5899 5901 5901 5902 5903 5904 5904 5904 5904 5905 5904 5904 5903 5903 5903 5902 5903 5903 5903 5903 5902 5903 5903 5905 5909 5910 5912 5915 5917 5920 5923 5925 5928 5931 5935 5938 5940 5941 5943 5943
5889 5891 5892 5892 5894 5892 5892 5894 5896 5898 5901 5904 5904 5904 5904 5905 5904 5905 5907 5906 5906 5907 5906 5905 5904 5904 5904 5905 5905 5905 5905 5905 5907 5911 5913 5915 5917 5919 5922 5925 5928 5931 5934 5938 5941 5943 5943 5944 5946
5888 5890 5892 5892 5894 5894 5895 5895 5895 5899 5900 5904 5904 5905 5906 5907 5906 5907 5908 5908 5908 5909 5908 5907 5907 5907 5907 5907 5907 5908 5908 5908 5909 5912 5914 5917 5919 5921 5924 5928 5931 5933 5937 5941 5943 5944 5945 5946 5949
5887 5889 5890 5891 5891 5892 5894 5896 5896 5898 5900 5902 5905 5905 5908 5909 5909 5909 5909 5909 5909 5910 5910 5910 5909 5910 5910 5909 5910 5910 5911 5911 5911 5913 5915 5918 5921 5924 5927 5930 5933 5936 5940 5943 5944 5946 5947 5949 5951
5885 5886 5888 5889 5890 5891 5893 5894 5894 5895 5898 5901 5904 5905 5907 5909 5910 5910 5910 5909 5910 5911 5912 5911 5912 5913 5914 5913 5913 5914 5914 5914 5914 5915 5918 5921 5923 5926 5929 5933 5936 5938 5941 5943 5945 5946 5949 5951 5953
5881 5882 5884 5886 5886 5889 5891 5891 5892 5894 5896 5899 5902 5904 5906 5908 5909 5910 5910 5910 5911 5912 5913 5914 5914 5914 5916 5916 5916 5916 5917 5918 5919 5921 5923 5925 5927 5928 5931 5934 5938 5940 5941 5943 5946 5948 5950 5953 5954
5876 5878 5880 5882 5884 5885 5886 5888 5890 5892 5893 5896 5898 5902 5904 5906 5909 5910 5910 5911 5912 5913 5915 5916 5917 5917 5918 5918 5919 5920 5921 5921 5922 5924 5927 5928 5930 5931 5934 5937 5938 5940 5943 5946 5947 5950 5951 5953 5955
5872 5873 5875 5877 5879 5882 5884 5886 5886 5889 5890 5893 5896 5898 5902 5904 5907 5908 5910 5911 5912 5914 5915 5916 5918 5919 5920 5920 5921 5922 5924 5925 5926 5928 5929 5930 5933 5934 5937 5939 5941 5943 5945 5947 5949 5951 5952 5953 5956
5866 5869 5870 5873 5873 5878 5878 5880 5884 5886 5887 5890 5895 5896 5896 5902 5904 5907 5909 5911 5914 5914 5915 5916 5918 5920 5921 5922 5923 5924 5926 5927 5929 5931 5933 5934 5935 5936 5939 5940 5942 5945 5947 5948 5949 5951 5954 5956 5956
5862 5866 5866 5869 5870 5872 5872 5876 5877 5879 5881 5884 5889 5892 5894 5899 5901 5904 5907 5909 5913 5915 5915 5915 5918 5920 5922 5923 5924 5925 5927 5929 5931 5932 5935 5936 5937 5938 5940 5942 5943 5945 5947 5948 5949 5952 5954 5955 5955
5858 5861 5861 5862 5865 5867 5868 5872 5873 5874 5876 5880 5884 5888 5892 5896 5899 5900 5903 5908 5911 5913 5914 5915 5916 5919 5922 5923 5925 5925 5926 5929 5932 5934 5935 5937 5939 5940 5941 5942 5944 5946 5947 5949 5951 5953 5954 5955 5955
5855 5856 5858 5858 5860 5861 5865 5866 5869 5871 5872 5875 5882 5884 5889 5892 5898 5900 5902 5906 5909 5912 5913 5913 5915 5918 5921 5923 5924 5926 5927 5929 5931 5933 5936 5938 5940 5941 5942 5944 5945 5946 5948 5950 5952 5953 5953 5955 5955
5849 5852 5854 5853 5856 5859 5860 5861 5864 5867 5867 5871 5876 5882 5886 5889 5895 5897 5896 5903 5906 5909 5912 5913 5914 5916 5919 5921 5923 5924 5926 5929 5931 5933 5936 5939 5940 5942 5942 5943 5945 5946 5947 5949 5950 5951 5952 5953 5953
5845 5848 5849 5850 5852 5855 5856 5859 5860 5863 5865 5866 5872 5877 5882 5885 5889 5894 5896 5902 5905 5907 5910 5912 5913 5915 5917 5919 5921 5923 5925 5928 5931 5933 5936 5938 5939 5941 5943 5943 5945 5947 5948 5949 5950 5951 5951 5952 5952
5840 5843 5845 5846 5848 5851 5853 5856 5856 5857 5860 5861 5861 5868 5874 5881 5885 5891 5894 5897 5901 5905 5908 5911 5911 5914 5916 5918 5920 5922 5924 5927 5930 5931 5934 5936 5938 5939 5942 5943 5944 5945 5946 5948 5948 5948 5949 5950 5951
5836 5839 5842 5843 5845 5847 5851 5852 5853 5851 5851 5853 5855 5861 5870 5877 5881 5885 5889 5892 5897 5902 5905 5908 5909 5911 5914 5916 5919 5921 5924 5925 5927 5929 5931 5934 5936 5937 5938 5941 5942 5944 5945 5945 5946 5946 5948 5948 5949
5833 5836 5837 5838 5841 5843 5847 5848 5848 5848 5846 5848 5849 5857 5862 5868 5874 5879 5884 5889 5893 5898 5901 5904 5907 5908 5910 5914 5917 5919 5922 5924 5926 5929 5931 5932 5934 5936 5937 5938 5939 5940 5941 5942 5943 5944 5945 5946 5946
5829 5832 5834 5836 5837 5839 5842 5844 5842 5844 5843 5843 5845 5847 5854 5860 5868 5874 5879 5883 5886 5891 5897 5901 5903 5905 5906 5910 5913 5916 5919 5920 5922 5925 5927 5930 5932 5933 5935 5936 5937 5937 5938 5938 5940 5941 5942 5943 5943
5824 5827 5830 5830 5830 5835 5836 5838 5836 5841 5841 5839 5839 5840 5847 5853 5860 5866 5870 5875 5881 5887 5891 5896 5899 5902 5903 5904 5908 5912 5915 5917 5918 5920 5923 5924 5927 5929 5931 5932 5934 5934 5934 5935 5936 5938 5938 5940 5940
Wind_Speed
13 14 11 12 10 8 7 10 14 15 15 13 12 12 12 12 13 13 14 13 11 11 13 12 15 14 16 17 18 25 25 25 24 22 20 19 17 17 16 17 19 19 19 19 20 18 17 15 15
12 11 7 10 8 5 5 9 14 14 14 13 11 10 11 11 13 13 13 14 13 11 11 11 15 18 19 23 23 23 27 24 22 20 19 19 18 18 17 18 19 19 19 19 18 17 17 15 15
10 12 8 8 8 3 4 8 11 12 13 12 10 11 11 10 13 13 12 13 14 13 11 11 14 16 18 19 22 22 20 21 19 19 20 20 19 17 16 17 17 17 18 18 17 16 18 14 15
9 10 12 6 8 4 4 8 9 11 13 12 10 9 10 12 14 13 13 14 11 14 12 12 13 15 16 18 18 18 18 17 16 14 16 19 18 16 16 16 17 17 17 16 14 16 18 16 14
6 10 13 9 6 5 4 6 7 11 11 13 11 10 8 15 14 13 11 11 12 11 13 13 13 13 14 15 16 16 16 15 14 13 16 17 18 17 17 15 17 18 17 17 16 15 15 15 13
5 9 9 12 5 4 4 6 7 10 9 13 15 11 10 10 12 11 12 10 11 11 12 14 14 13 13 14 14 13 13 14 15 15 16 17 16 16 19 17 15 17 18 17 16 15 14 12 11
3 6 13 10 6 3 4 5 7 9 10 11 14 12 10 12 11 10 12 11 11 12 12 14 14 15 15 15 16 15 14 14 13 13 15 16 15 15 21 18 16 15 17 18 15 13 14 12 14
2 4 5 10 7 4 4 3 6 6 10 10 13 12 11 11 11 9 12 13 11 12 13 14 13 15 17 16 17 17 16 14 14 12 13 15 15 16 18 20 17 16 17 17 14 13 14 15 15
1 1 4 8 8 2 4 2 4 1 11 10 11 13 10 10 11 9 11 13 12 13 13 13 12 13 16 16 17 16 15 14 14 14 14 14 16 17 17 18 16 17 18 18 14 14 16 15 15
1 5 3 8 7 7 9 6 5 2 10 11 10 9 9 9 10 9 11 12 13 14 15 14 15 16 16 15 15 14 14 13 12 13 16 16 16 18 19 17 17 18 19 17 15 16 16 15 15
5 8 6 5 14 14 9 11 9 5 8 11 8 7 8 9 10 9 9 12 13 15 17 17 18 18 15 16 15 13 13 14 14 15 16 17 17 17 18 19 16 19 20 19 16 17 17 15 15
4 7 7 8 20 8 12 11 12 6 5 7 8 6 7 8 10 9 8 11 12 14 16 18 18 18 16 17 19 17 15 16 17 18 19 18 17 18 21 22 17 20 21 18 17 18 16 15 14
8 8 7 6 11 5 13 12 12 8 6 5 5 5 7 7 8 10 8 10 12 14 16 17 18 19 19 18 16 18 17 17 19 19 19 19 19 19 20 19 19 20 19 18 16 18 16 14 13
12 9 9 10 5 2 11 11 9 7 9 6 5 4 5 6 5 10 10 9 11 14 16 19 21 21 18 19 21 18 19 19 19 21 20 19 19 20 21 19 19 20 20 17 15 15 14 12 12
13 10 11 11 10 8 12 15 10 10 10 9 7 6 4 6 7 7 10 11 11 12 15 17 17 21 22 19 20 19 20 21 18 18 21 20 18 20 20 21 21 21 18 17 14 13 12 10 12
15 14 12 13 13 7 5 13 17 15 15 11 11 10 7 8 7 7 8 12 12 12 14 15 18 18 19 18 19 20 19 19 20 20 20 19 18 20 20 21 21 19 20 18 16 13 10 9 11
19 20 19 17 19 14 13 12 17 18 20 16 15 13 11 10 11 9 7 10 13 13 13 14 15 16 18 19 18 20 20 19 18 19 20 20 18 21 22 22 20 21 20 18 16 13 9 9 9
21 23 23 20 21 18 16 11 21 19 19 19 21 18 15 12 11 11 11 9 13 15 14 15 14 15 16 18 18 20 21 21 19 19 20 19 21 24 22 20 20 21 20 18 15 13 9 8 6
21 24 25 25 24 23 16 16 23 24 24 25 22 19 17 16 14 11 13 11 11 16 17 15 15 15 15 19 18 19 21 20 19 20 20 19 22 22 15 17 18 18 17 16 15 14 10 7 5
21 24 26 25 27 24 32 22 17 28 32 31 28 25 23 18 16 14 12 14 11 14 18 17 16 13 14 15 17 18 18 18 17 18 19 18 21 19 18 19 18 16 16 15 15 15 10 6 5
21 22 25 25 26 28 30 28 23 17 38 35 29 31 29 22 21 18 16 16 16 14 17 18 16 14 13 14 14 15 15 16 16 17 15 16 17 19 18 17 16 15 13 12 14 13 11 9 6
22 21 25 25 27 28 27 26 23 24 27 33 32 30 27 24 23 24 21 19 19 17 16 18 18 15 13 14 14 14 14 13 14 14 15 14 14 14 16 17 15 13 13 12 11 11 9 7 6
21 20 24 25 25 27 26 27 23 26 27 34 34 32 27 29 26 24 24 22 20 19 17 16 16 18 15 13 14 13 13 12 13 13 12 12 11 12 12 11 12 13 13 12 11 10 8 7 7
22 19 21 22 24 22 22 26 25 17 21 32 36 34 30 28 30 29 30 27 23 20 19 18 17 16 16 13 12 12 12 13 12 12 12 12 12 10 9 10 10 9 9 9 10 10 10 9 8
19 18 21 23 23 19 16 18 21 21 20 22 36 29 29 32 32 30 27 26 26 24 21 19 18 17 16 15 13 12 12 11 12 13 13 12 13 12 14 13 12 11 11 11 10 9 8 9 9
18 19 20 22 21 19 17 14 14 18 19 24 32 43 38 37 32 27 27 28 28 26 23 23 21 19 18 17 16 15 14 13 11 11 12 12 14 14 14 13 12 11 11 12 12 10 9 9 9
19 19 18 20 20 19 16 13 6 11 18 21 29 32 34 35 28 25 30 30 29 28 27 25 24 21 19 17 16 17 16 15 12 10 11 13 12 12 12 12 13 13 13 13 13 13 13 12 12
21 20 22 22 23 20 17 13 8 8 15 19 19 30 29 30 33 28 29 26 27 28 30 28 25 24 22 19 18 19 18 16 14 14 13 13 13 13 13 13 13 12 12 13 14 15 14 14 12
24 23 22 23 25 21 17 11 13 7 4 11 18 24 28 36 37 32 29 22 28 29 31 31 29 26 24 22 21 20 20 19 17 17 16 16 16 15 15 15 16 16 15 13 14 14 14 14 13
29 26 26 28 23 20 18 11 13 10 9 7 9 18 28 33 41 38 35 28 29 29 32 33 31 29 27 25 23 22 20 20 20 20 20 19 17 16 16 16 16 15 16 16 15 16 15 14 14
Wind_Direction
20 33 61 73 60 77 75 57 61 66 70 60 52 66 63 65 71 74 83 100 107 115 104 102 104 109 110 106 111 117 112 112 114 115 121 120 126 126 126 133 134 130 128 129 124 123 119 114 112
10 17 51 81 73 91 107 70 68 60 63 66 62 60 61 63 70 71 79 96 109 117 128 110 99 109 97 94 104 115 120 120 121 125 126 127 127 127 136 133 134 132 131 127 123 121 114 111 110
5 2 80 115 110 118 100 76 79 67 60 65 63 63 56 64 72 73 73 81 104 120 117 108 104 106 103 105 108 116 127 133 127 128 130 132 129 136 134 132 134 132 128 126 125 126 117 111 106
6 34 91 116 123 132 110 81 72 59 66 63 60 69 61 56 61 67 67 83 91 117 120 117 119 119 116 116 118 119 126 130 133 131 126 129 130 132 129 134 138 136 135 124 113 109 110 106 113
10 45 103 111 137 138 102 85 86 73 74 71 57 54 60 55 55 73 68 78 93 104 117 121 119 117 117 119 119 125 132 134 138 143 143 147 147 145 141 144 141 139 138 128 113 109 111 105 105
17 57 89 116 141 143 107 82 76 77 81 74 63 50 47 63 58 68 69 67 87 98 109 113 113 116 115 116 123 130 134 137 145 153 154 159 165 158 156 142 146 143 141 129 118 121 113 106 104
48 39 112 99 150 126 97 76 68 70 71 72 69 54 51 73 68 69 73 80 89 97 102 104 106 112 113 117 118 118 123 132 148 160 162 161 156 145 151 142 141 147 139 132 130 118 113 102 95
82 75 131 79 120 94 70 87 97 107 78 63 70 67 55 74 81 76 80 93 96 94 109 104 109 114 115 117 117 118 121 123 123 135 149 160 159 153 146 148 148 144 144 139 127 112 107 97 102
208 120 148 129 110 85 152 158 197 120 89 69 68 69 65 72 90 87 84 97 101 99 110 106 108 125 119 119 120 121 124 129 128 121 131 146 153 151 148 150 150 148 144 141 130 117 111 105 107
30 281 235 243 331 294 204 158 227 187 93 77 68 71 71 77 98 102 93 97 103 106 108 107 97 110 106 105 113 121 128 127 132 122 122 130 142 146 141 139 136 144 142 142 131 117 111 110 111
238 277 339 306 316 300 196 168 207 195 112 100 81 71 72 86 96 104 96 101 104 111 114 113 106 103 106 101 105 111 115 121 132 126 122 123 130 144 148 144 138 143 146 141 128 120 115 113 111
198 261 289 350 327 253 181 180 174 181 147 112 97 91 92 95 103 110 112 108 109 116 121 116 112 108 106 104 94 100 110 125 135 133 127 130 133 138 142 142 144 145 143 138 131 123 120 117 112
234 241 270 327 28 162 163 194 168 185 185 150 122 111 105 127 115 118 129 112 111 111 116 122 113 108 104 102 97 88 98 124 133 129 127 138 133 138 145 144 145 145 141 138 133 124 127 124 119
271 244 261 262 291 245 183 216 187 182 175 182 162 126 115 116 122 127 140 129 122 119 118 116 109 104 103 98 94 94 94 116 126 136 134 139 137 136 138 140 144 144 143 140 132 132 130 131 112
265 254 246 261 262 223 173 185 188 184 196 196 196 169 153 133 141 129 144 143 134 126 121 117 114 109 103 102 98 100 108 106 122 137 131 134 133 134 136 140 144 141 143 140 138 134 135 132 105
254 252 239 251 249 259 193 207 206 209 205 208 203 182 180 145 138 147 149 150 144 133 127 130 124 117 113 108 102 98 100 109 104 112 129 126 135 136 132 135 136 136 137 138 138 137 140 130 100
249 251 250 248 252 243 264 273 215 207 199 197 210 191 188 171 154 159 171 162 152 142 141 143 135 126 117 115 111 108 107 109 115 117 122 125 126 132 130 134 138 137 142 144 140 136 142 118 111
241 246 248 243 245 251 263 261 213 203 210 208 221 205 188 186 169 167 173 187 165 152 147 146 145 138 127 121 118 115 112 112 117 118 124 127 127 132 133 136 147 152 147 142 142 137 142 134 125
248 246 247 247 242 233 248 233 226 215 218 203 221 211 197 192 180 181 175 190 185 160 156 153 152 153 145 133 126 119 119 117 112 115 119 122 132 137 145 147 147 151 147 144 143 144 151 150 131
252 250 250 252 251 241 238 250 256 244 221 209 212 208 224 190 185 187 192 192 193 173 161 158 155 157 158 149 136 124 121 118 116 113 114 121 131 139 140 146 150 153 148 149 147 149 152 152 156
255 256 257 253 256 255 249 252 263 260 214 210 206 218 223 197 188 185 205 198 191 184 168 161 160 160 159 161 147 136 129 129 133 126 121 126 133 142 147 148 151 151 151 157 155 158 170 180 192
256 253 259 256 253 258 252 249 256 246 243 216 204 208 215 217 201 190 193 199 196 188 174 165 163 165 171 166 159 155 146 145 142 143 140 137 140 147 154 153 154 151 154 158 161 173 184 204 219
255 249 253 259 256 258 256 256 256 251 250 219 203 204 213 217 215 198 191 199 198 194 184 171 166 168 178 178 170 165 159 165 161 160 159 159 156 151 154 159 164 168 172 170 178 187 200 217 240
246 244 248 255 257 259 260 260 253 264 271 209 214 211 216 226 220 201 192 194 197 198 190 184 178 172 173 178 181 180 175 174 177 175 175 176 176 177 177 177 172 171 178 179 185 191 202 213 229
244 239 242 247 248 253 259 267 270 270 267 251 216 215 213 220 216 209 197 193 194 200 195 190 189 188 186 176 179 188 193 193 190 189 192 190 190 184 189 189 192 196 197 201 204 210 219 233 241
232 232 238 250 250 250 249 255 274 275 256 247 244 209 211 211 218 211 201 195 197 201 199 193 194 196 198 193 191 199 199 193 198 194 197 207 206 208 204 201 209 212 213 217 215 218 229 243 258
225 231 237 245 243 244 240 234 288 304 251 243 224 219 208 207 202 213 204 195 198 202 203 204 199 198 203 205 197 199 209 214 211 210 210 200 211 209 218 223 218 223 230 236 238 248 253 245 250
230 229 229 232 236 238 232 238 257 302 227 222 210 219 207 214 214 216 212 201 200 209 211 209 213 205 207 210 208 206 213 218 220 219 221 231 220 212 214 221 229 224 227 232 239 242 247 246 247
229 231 234 237 236 233 220 222 237 253 143 203 221 215 232 213 206 213 213 216 206 215 218 216 214 217 208 214 218 219 219 221 223 225 227 235 240 239 238 233 228 229 223 230 243 249 247 249 248
225 231 231 237 234 226 219 202 215 237 272 141 153 181 211 204 202 212 218 213 212 218 222 224 219 220 219 214 219 226 230 231 232 232 233 236 240 245 245 247 240 236 227 225 232 243 253 254 255